Location: Unspecified
(0.0000°N, 0.0000°E)
Time: 23:40:29
(UTC+00:00)

Vanguard 2 - Pass Details

Date: 10 October 2020
Orbit: 554 x 2937 km, 32.9° (Epoch: 28 October)

Event Time Altitude Azimuth Distance (km) Brightness Sun altitude
Rises 10:14:46 0° 291° (WNW) 2,793 10.2 66.0°
Reaches altitude 10° 10:17:10 10° 282° (WNW) 1,829 9.4 66.6°
Maximum altitude 10:20:49 36° 213° (SSW) 891 8.3 67.4°
Drops below altitude 10° 10:24:50 10° 145° (SE) 2,009 10.1 68.4°
Sets 10:27:36 0° 136° (SE) 3,118 10.9 69.1°
